COSMOS 2251 DEB, 34613

Orbit data source: Space-Track

COSMOS 2251 DEB, 34613 is space debris in LEO originally from a launch on Wed, 16 Jun 1993 UTC launched from the Plesetsk Missile And Space Complex (PKMTR). The debris from Iridium 33, an American commercial communications satellite, has been tracked extensively since its accidental collision with the defunct Russian satellite Cosmos 2251 in 2009. This event, occurring at high speed in low Earth orbit (LEO), generated thousands of pieces of space debris, significantly increasing the risk of further collisions. The Iridium 33 debris cloud has impacted space traffic management and orbital debris mitigation strategies, making it a subject of ongoing study in space situational awareness.

Loading next visibility...
Identifier
34613, 1993-036WJ
Orbit
LEO
Country
Flag of CISCIS
Related business
Manufacturer
Unknown
Mission
Spacecraft
Bus & Motor
Unknown
Mass
Unknown
Launch date (UTC)
1993-06-16 (32 years ago)
Launch vehicle
Unknown
Launch site
Plesetsk Missile And Space Complex (PKMTR)
Object type
Payload
Rocket body
Debris
Shape & HBR
Unknown shape, 0.1 m
Radar Cross Section
Small (<0.1 m²)

Expand to show TLE details & history
Last TLE update: 8 hours ago

TLE from 8 hours ago
0 COSMOS 2251 DEB
1 34613U 93036WJ  25291.26264734  .00006607  00000-0  26010-2 0  9991
2 34613  73.9656  19.2528 0113355 223.1258 167.4856 14.25902679856723
Epoch: 2025-10-18T06:18Z
TLE epoch observation values (Epoch: 2025-10-18T06:18:12.730Z)
Latitude
29.6196°
Longitude
-92.94223°
Altitude
888.377 km
Speed
7.37 km/s
True Right ascension
01h 54m 25s
True Declination
29° 28' 29"
Sunlit
Object was in full shadow at epoch
Visualization orbit readout
Latitude
Unknown
Longitude
Unknown
Altitude
Unknown
Speed
Unknown
Apparent Right ascension
Unknown
Apparent Declination
Unknown
Sunlit
N/A
Visualization observer readout
Local Sidereal Time
09:07:32
Azimuth
Unknown
Elevation
Unknown
Doppler factor
Unknown
Orbital elements
Apogee altitude
884.503 km
Perigee altitude
721.697 km
Semi-major axis
7,181.237 km
Eccentricity
0.01134
Inclination
73.9656°
RAAN
19.2528°
Arg. of periapsis
223.1258°
True anomaly
167.76322°
Mean anomaly
167.4856°
Eccentric anomaly
167.62479°
Mean motion
3.56652 °/min
Orbital period
100.94 mins
BSTAR
0.002601

Documentation

Showing up to 5 results
|